Погода в Лазавке

Россия / Орловская область     52°52′52″N   37°40′03″E
темп.,
°C
ветер,
м/с
пор.,
м/с
влажн.,
%
обл.,
%
осадки,
мм/ч
давл.,
гПа
погр.,
м
18 мая, вт
вт1800:00+17юв412796 0.0 1008265
03:00+15вюв48855 0.0 1007141
06:00+15вюв497922 0.0 1007181
09:00+20вюв6136060 0.0 1007439
12:00+24вюв7125293 0.0 1006923
15:00+25вюв71355100 0.0 10041582
18:00+22юв6126422 0.0 1004646
21:00+16юз599240 0.1 1005336
19 мая, ср
ср1900:00+14ююв3694100 0.1 1006233
03:00+14юв51091100 0.3 1006373
06:00+14ююв5109524 0.2 1007432
09:00+17ююв577616 0.2 1007885
12:00+20юв686277 0.2 10071580
15:00+20ююв6866100 1.3 10071322
18:00+19вюв4878100 1.0 1005992
21:00+13юв2594100 2.3 1006118
20 мая, чт
чт2000:00+13вюв71293100 0.1 1005765
03:00+11юв8149389 0.2 1004711
06:00+12юв71290100 0.0 1005816
09:00+11ююв81295100 0.7 1005814
12:00+12ююв71295100 0.6 1006828
15:00+15ююз578298 0.8 1007677
18:00+15ююз698744 2.0 1008564
21:00+11юз379753 2.4 1010236
21 мая, пт
пт2100:00+12зюз4796100 0.3 1010368
03:00+10з589597 0.4 1012459
06:00+10з489314 0.0 1013380
09:00+13з457879 0.0 1014753
12:00+15зсз456699 0.1 10151314
15:00+15сз4468100 0.1 10151169
18:00+14з1175100 0.0 1016289
21:00+12ююз1180100 0.0 101810
22 мая, сб
сб2200:00+12ссв2377100 0.0 101750
03:00+12в3485100 0.1 1018111
06:00+11в3790100 0.4 1018269
09:00+11всв5897100 8.9 1018330
12:00+11всв5996100 1.9 1018288
15:00+12всв61193100 2.0 1018395
18:00+13всв61290100 0.0 1016399
21:00+12всв61394100 0.0 1016389